Weather History for KINK - March, 2013

Change the Weather History Date:

Tuesday, March 5, 2013

  Actual Average Record
Temperature  
Mean Temperature 47 °F -  
Max Temperature 57 °F 66 °F 91 °F (2009)
Min Temperature 37 °F 34 °F 9 °F (1989)
Degree Days  
Heating Degree Days 18    
Moisture  
Dew Point 21 °F    
Average Humidity 39    
Maximum Humidity 62    
Minimum Humidity 22    
Precipitation  
Precipitation 0.00 in - - ()
Sea Level Pressure  
Sea Level Pressure 30.29 in    
Wind  
Wind Speed 14 mph (ENE)    
Max Wind Speed 28 mph    
Max Gust Speed 48 mph    
Visibility 10 miles    
Events      
Averages and records for this station are not official NWS values.
T = Trace of Precipitation, MM = Missing Value Source: NWS Daily Summary

Daily Weather History Graph

Daily Weather History Graph

Search for Another Location

Airport or City:

Trip Planner

Search our weather history database for the weather conditions in past years. The results will help you decide how hot, cold, wet, or windy it might be!

Date:

Astronomy

Mar. 05, 2013 Rise Set
Actual Time 7:14 AM CST 6:53 PM CST
Civil Twilight 6:50 AM CST 7:18 PM CST
Nautical Twilight 6:22 AM CST 7:46 PM CST
Astronomical Twilight 5:54 AM CST 8:14 PM CST
Moon 2:13 AM CST (3/5) 12:51 PM CST (3/5)
Length of Visible Light 12h 27m
Length of Day
11h 39m
Last Quarter, 40% of the Moon is Illuminated
Mar 5
Last Quarter
Mar 11
New
Mar 19
First Quarter
Mar 27
Full
Apr 2
Last Quarter

Hourly Weather History & Observations

Time (CST) Temp. Windchill Dew Point Humidity Pressure Visibility Wind Dir Wind Speed Gust Speed Precip Events Conditions
1:53 AM 53.1 °F - 33.1 °F 47% 30.01 in - NNE 26.5 mph 48.3 mph N/A   Mostly Cloudy
2:53 AM 45.0 °F 35.6 °F 28.0 °F 52% 30.10 in - NNE 27.6 mph 36.8 mph N/A   Overcast
3:43 AM 44.6 °F 36.9 °F 28.4 °F 53% 30.22 in - NNE 18.4 mph 32.2 mph N/A   Partly Cloudy
3:53 AM 43.0 °F 34.8 °F 28.9 °F 58% 30.15 in - NNE 18.4 mph 26.5 mph N/A   Partly Cloudy
4:53 AM 41.0 °F 34.3 °F 28.0 °F 60% 30.24 in - North 11.5 mph - N/A   Clear
5:53 AM 39.0 °F - 26.1 °F 60% 30.30 in - Calm Calm - N/A   Clear
6:53 AM 37.4 °F 32.8 °F 24.8 °F 60% 30.41 in - North 5.8 mph - N/A   Clear
7:53 AM 37.0 °F 31.6 °F 25.0 °F 62% 30.37 in - NNW 6.9 mph - N/A   Clear
8:53 AM 41.0 °F 34.3 °F 24.1 °F 51% 30.39 in 10.0 mi North 11.5 mph - N/A   Clear
9:53 AM 44.1 °F 38.6 °F 21.9 °F 42% 30.39 in 10.0 mi North 10.4 mph - N/A   Clear
10:53 AM 46.9 °F - 19.0 °F 33% 30.38 in 10.0 mi NE 8.1 mph - N/A   Clear
11:53 AM 48.0 °F - 18.0 °F 30% 30.37 in 10.0 mi East 4.6 mph - N/A   Clear
12:53 PM 53.1 °F - 16.0 °F 23% 30.34 in 10.0 mi East 8.1 mph - N/A   Clear
1:53 PM 54.0 °F - 17.1 °F 23% 30.32 in 10.0 mi ENE 8.1 mph - N/A   Clear
2:53 PM 55.9 °F - 17.1 °F 22% 30.30 in 10.0 mi East 6.9 mph - N/A   Clear
3:53 PM 55.9 °F - 18.0 °F 23% 30.28 in 10.0 mi SSE 4.6 mph - N/A   Clear
4:53 PM 57.0 °F - 18.0 °F 22% 30.26 in 10.0 mi ESE 5.8 mph - N/A   Clear
5:53 PM 57.0 °F - 18.0 °F 22% 30.26 in 10.0 mi ESE 9.2 mph - N/A   Clear
6:53 PM 54.0 °F - 18.0 °F 24% 30.27 in 10.0 mi SE 6.9 mph - N/A   Clear
7:53 PM 48.9 °F - 18.0 °F 29% 30.28 in 10.0 mi ESE 6.9 mph - N/A   Clear
8:53 PM 46.9 °F - 17.1 °F 30% 30.30 in 10.0 mi ESE 5.8 mph - N/A   Clear
9:53 PM 43.0 °F 40.3 °F 17.1 °F 35% 30.31 in 10.0 mi East 4.6 mph - N/A   Clear
10:53 PM 41.0 °F 37.1 °F 17.1 °F 38% 30.30 in 10.0 mi East 5.8 mph - N/A   Clear
11:53 PM 39.9 °F 35.1 °F 17.1 °F 40% 30.29 in 10.0 mi East 6.9 mph - N/A   Clear